Location: Newark
(50.9600°S, 168.4275°W)
Time: 07:07:06
(UTC+00:00)

N. Korean satellite - Visible Passes

Search period start: 19 January 2020 00:00
Search period end: 29 January 2020 00:00
Orbit: 454 x 508 km, 97.2° (Epoch: 18 January)

Date Brightness Start Highest point End Pass type
(mag) Time Alt. Az. Time Alt. Az. Time Alt. Az.
20 Jan 10.2 14:39:09 10° E 14:40:57 13° ESE 14:42:45 10° SSE visible
24 Jan 10.4 14:31:23 10° ESE 14:32:28 11° ESE 14:33:32 10° SE visible
27 Jan 10.0 14:46:53 10° E 14:49:08 15° ESE 14:51:25 10° SSE visible
